Location: Bosdarros
(43.2167°N, 0.3667°W)
Time: 06:59:43
(UTC+00:00)

Cosmos 1766 Rocket - Pass Details

Date: 22 April 2021
Orbit: 604 x 634 km, 82.5° (Epoch: 07 May)

Event Time Altitude Azimuth Distance (km) Brightness Sun altitude
Rises 20:29:26 0° 1° (N) 2,870 7.5 -16.5°
Reaches altitude 10° 20:31:52 10° 12° (NNE) 1,964 6.4 -16.9°
Maximum altitude 20:35:44 31° 75° (ENE) 1,080 4.5 -17.4°
Enters shadow 20:36:22 29° 92° (E) 1,111 4.4 -17.5°
